Theta_e
301 301 300 300 301 301 301 301 303 305 308 310 315 321 324 324 323 322 321 320 320 320
296 296 295 295 296 296 296 296 298 299 300 302 304 307 310 316 319 323 324 323 322 319
293 292 292 292 291 291 292 293 294 295 297 298 298 299 301 305 307 309 312 316 318 319
290 288 288 288 288 288 289 290 291 292 294 295 295 296 296 298 301 302 304 306 308 310
286 286 285 285 285 286 286 287 287 289 291 292 292 293 293 295 294 294 295 297 299 300
283 283 283 283 283 284 284 284 285 287 287 288 288 289 291 290 291 292 292 294 294 295
280 280 281 281 281 281 282 282 283 284 284 285 285 287 287 288 288 289 289 291 292 292
279 279 279 279 279 280 280 280 281 281 282 283 283 284 283 285 285 285 286 288 289 291
277 277 278 278 278 278 278 279 279 279 279 279 280 282 283 283 283 284 285 286 288 289
276 276 276 277 277 276 277 277 278 278 278 278 279 281 282 283 283 283 283 284 285 285
274 274 275 275 275 276 277 277 277 277 278 278 278 281 282 282 282 281 282 282 283 283
273 273 273 273 273 274 275 276 276 276 277 277 278 280 281 281 280 279 280 281 281 281
272 272 273 273 273 274 275 274 275 276 276 277 276 278 279 280 279 278 278 279 279 279
271 271 272 272 273 273 273 273 274 274 275 275 275 275 278 279 278 277 276 276 276 277
Wind_Speed
14 10 10 11 9 8 7 8 11 11 10 12 13 11 9 7 6 7 8 12 11 10
13 14 11 12 10 8 9 9 11 11 11 11 12 12 13 8 8 8 11 12 12 10
12 13 12 11 12 11 10 12 12 12 13 12 11 12 12 10 11 11 8 9 11 11
12 12 11 11 11 13 12 13 13 13 12 12 12 13 12 12 12 13 13 13 14 15
12 11 11 11 12 12 12 12 12 12 12 13 14 15 14 14 15 16 15 14 14 15
12 12 12 12 12 12 12 12 13 12 13 14 14 14 14 15 15 15 16 16 17 16
11 11 12 12 12 12 12 12 13 13 13 13 14 14 16 17 17 17 16 16 15 17
10 10 10 11 11 11 11 11 11 11 12 13 12 12 18 18 18 18 18 17 16 15
9 9 10 10 10 10 9 10 10 11 12 12 9 20 22 20 17 17 18 17 17 17
9 9 10 8 9 9 9 9 9 10 11 11 11 21 23 24 13 16 16 17 16 16
8 9 8 9 9 9 9 10 10 11 12 11 10 23 26 29 18 17 19 18 18 18
7 8 8 8 9 9 9 9 10 10 13 14 14 25 27 25 17 16 17 17 18 19
6 6 8 9 8 7 7 8 8 9 11 13 14 21 25 23 12 15 14 16 18 25
7 7 7 8 7 8 7 7 9 10 10 11 13 15 22 26 14 13 13 14 14 14
Wind_Direction
47 52 48 41 36 35 23 14 4 1 2 351 341 327 299 276 267 271 267 262 259 262
42 44 42 37 30 22 17 4 5 359 358 8 350 350 339 324 314 296 281 268 262 254
38 34 31 30 25 19 13 7 4 1 359 358 348 355 346 338 332 333 329 319 301 278
33 28 27 25 19 11 9 7 5 0 352 351 351 352 347 342 344 342 338 331 327 318
27 24 26 21 16 13 8 5 1 357 355 354 354 353 350 347 345 336 332 324 316 312
24 16 17 16 11 7 5 5 0 0 0 358 352 347 355 343 337 331 325 325 323 318
27 15 11 8 8 5 3 3 1 359 0 357 351 356 350 342 336 330 325 320 318 318
27 13 14 10 5 8 2 3 2 357 358 356 355 7 348 343 336 330 324 322 320 316
14 16 16 7 0 6 5 8 360 5 4 360 359 355 352 350 334 333 331 330 328 325
18 13 11 2 4 8 3 5 11 10 6 4 1 356 350 348 342 340 337 331 325 324
4 18 2 8 7 8 6 10 7 7 6 1 3 358 359 359 354 347 339 334 329 321
359 12 359 6 5 6 2 5 4 0 1 2 2 3 2 358 350 338 331 328 329 324
360 356 4 1 356 353 356 2 354 358 7 2 360 359 357 352 339 333 332 335 331 332
5 353 358 350 354 354 358 360 5 5 5 4 355 354 346 349 343 335 336 330 333 331